Location: ?????
(55.8833°N, 37.6500°E)
Time: 04:09:33
(UTC+00:00)

Meteor 1-4 Rocket - Pass Details

Date: 27 February 2020
Orbit: 450 x 502 km, 81.2° (Epoch: 09 April)

Event Time Altitude Azimuth Distance (km) Brightness Sun altitude
Rises 17:22:35 0° 348° (NNW) 2,570 6.6 -20.8°
Reaches altitude 10° 17:24:44 10° 354° (N) 1,692 5.6 -21.1°
Enters shadow 17:27:18 37° 21° (NNE) 780 3.5 -21.5°
